Regional Weather Roundup
Issued by NWS State College, PA

Home | Current Version | Previous Version | Text Only | Print | Product List | Glossary Off
Versions: 1 2 3 4 5 6 7 8 9 10 11 12 13 14 15 16 17 18 19 20 21 22 23 24 25 26 27 28 29 30 31 32 33 34 35 36 37 38 39 40 41 42 43 44 45 46 47 48 49 50

000
ASUS41 KCTP 260110
RWRCTP

REGIONAL WEATHER ROUNDUP
NATIONAL WEATHER SERVICE STATE COLLEGE PA
800 PM EST TUE NOV 25 2014

Note: "fair" indicates few or no clouds below 12,000 feet with no
significant weather and/or obstructions to visibility.

* = STATION THAT DOES NOT REPORT PRECIPITATION /E.G. RAIN...SNOW...ETC/
    THUNDER OR FOG.

PAZ002>004-007>009-013>016-020>023-029>032-260200-
WESTERN PENNSYLVANIA

CITY           SKY/WX    TMP DP  RH WIND       PRES   REMARKS
ERIE           CLOUDY    36  26  67 W9G18     30.16R
MEADVILLE      CLOUDY    34  25  69 W8        30.13R
FRANKLIN*      CLOUDY    34  23  64 SW6       30.16R
NEW CASTLE       N/A     35  25  67 CALM      30.18R
BEAVER COUNTY  CLEAR     34  25  69 NW3       30.15R
BUTLER*        CLEAR     32  25  74 CALM      30.17R
PITTSBURGH INT CLEAR     34  25  69 NW5       30.15R
PITTSBURGH     CLEAR     36  23  59 NW7       30.15R
INDIANA*       CLEAR     36  27  69 NW5       30.18R
LATROBE        CLEAR     37  27  65 CALM      30.18R
WASHINGTON CO* CLEAR     32  25  74 CALM      30.17R
$$

PAZ004>006-010>012-017>019-024>028-033>037-041-042-045-046-049>053-260200-
CENTRAL PENNSYLVANIA

CITY           SKY/WX    TMP DP  RH WIND       PRES   REMARKS
BRADFORD       CLOUDY    33  22  63 W8        30.10R
DUBOIS         CLEAR     32  24  72 W7        30.12R
CLEARFIELD     CLEAR     36  26  67 W6        30.12R
JOHNSTOWN      CLEAR     35  25  66 NW12      30.09R
ALTOONA        PTCLDY    38  28  67 W5        30.10R
STATE COLLEGE  CLEAR     37  28  70 W6        30.12R
WILLIAMSPORT   PTCLDY    38  28  67 CALM      30.10R
SELINSGROVE    PTCLDY    34  29  82 CALM      30.12R
FT INDIANTOWN  CLEAR     35  30  81 NW2       30.12R
CAPITAL CITY   PTCLDY    39  31  72 CALM      30.12R
HARRISBURG     PTCLDY    37  30  75 CALM      30.11R
YORK           PTCLDY    32  29  88 E5        30.11R
$$

PAZ038>040-043-044-047-048-054-055-060>062-067>071-260200-
EASTERN PENNSYLVANIA

CITY           SKY/WX    TMP DP  RH WIND       PRES   REMARKS
SCRANTON       PTCLDY    41  27  57 S7        30.09R
MOUNT POCONO   CLEAR     38  26  62 W8        30.05R
ALLENTOWN      PTCLDY    44  27  51 W3        30.10R
QUAKERTOWN*    MOCLDY    36  30  80 CALM      30.11R
READING        PTCLDY    44  28  53 CALM      30.10R
LANCASTER      PTCLDY    44  28  53 CALM      30.12R
COATESVILLE    MOCLDY    41  32  70 W5        30.12R
POTTSTOWN      MOCLDY    38  29  70 CALM      30.13R
BLUE BELL      MOCLDY    41  36  81 CALM      30.11R
DOYLESTOWN     MOCLDY    41  31  67 SW3       30.10R
WILLOW GROVE   NOT AVBL
NORTH PHILA    CLOUDY    49  30  48 W5        30.13R
PHILADELPHIA   CLOUDY    49  31  49 W8        30.13R
$$


USA.gov is the U.S. government's official web portal to all federal, state and local government web resources and services.